{"data":{"norad_id":67469,"epoch":"2026-05-24T23:06:52.204608Z","epoch_age_seconds":88670,"freshness":"FRESH","line1":"1 67469U 26008AA  26144.96310422  .00020524  00000+0  75275-3 0  9993","line2":"2 67469  43.0013 134.7717 0004107 292.0826  67.9589 15.27598125 21233","mean_motion":15.27598125,"eccentricity":0.0004107,"inclination_deg":43.0013,"raan_deg":134.7717,"arg_perigee_deg":292.0826,"mean_anomaly_deg":67.9589,"bstar":0.00075275,"rev_number":2123,"period_min":94.265630235701,"perigee_km":480.17695696581,"apogee_km":485.81269064588,"semimajor_km":6861.1318238058,"source":"CELESTRAK","updated_at":"2026-05-25T13:38:21.564590Z"}}